STARLINK-1813 (46711 NORAD) Tracking and Keplerian Element Data

This shows tracking and keplerian element data for the satellite.

Feedback or suggestion? Click here.




ElementValue
Catalog46711
NameSTARLINK-1813
Epoch Orbit775
Epoch Day338.91667824
Epoch Year2020
RAAN241.2084
Inclination53.0547
Eccentricity0.0001388
Argument of Perigee46.4252
Mean Anonmoly137.7601
Mean Motion15.62801925
Decay Rate-0.00052227
L11 46711U 20073AT 20338.91667824 -.00052227 00000-0 -56713-3 0 9995
L22 46711 53.0547 241.2084 0001388 46.4252 137.7601 15.62801925 7752

Live tracking and technical data element details for STARLINK-1813 (NORAD 46711). STARLINK-1813 can be tracked NOW for your location showing map with azimuth and elevation plus other details from your city location.

Track the satellite on the map from your city or location and see movement details for azimuth, elevation, latitude, longitude, range, height, and movement on the map or in text.







IsCatalogInMostPopularTable: catalog: 46711, numindb: 9
Update: records affected: 1



GetName: 46711 STARLINK-1813

Hit Count: updated at: Sat, 05 Dec 2020 04:59:47 GMT